QIKCOM-1 (42983 NORAD) Tracking and Keplerian Element Data

This shows tracking and keplerian element data for the satellite.

Feedback or suggestion? Click here.




ElementValue
Catalog42983
NameQIKCOM-1
Epoch Orbit22174
Epoch Day259.86657017
Epoch Year2021
RAAN154.313
Inclination51.6355
Eccentricity0.0002179
Argument of Perigee349.8817
Mean Anonmoly10.2136
Mean Motion15.68718066
Decay Rate0.00010568
L11 42983U 98067NF 21259.86657017 .00010568 00000-0 95620-4 0 9991
L22 42983 51.6355 154.3130 0002179 349.8817 10.2136 15.68718066221746

Live tracking and technical data element details for QIKCOM-1 (NORAD 42983). QIKCOM-1 can be tracked NOW for your location showing map with azimuth and elevation plus other details from your city location.

Track the satellite on the map from your city or location and see movement details for azimuth, elevation, latitude, longitude, range, height, and movement on the map or in text.







IsCatalogInMostPopularTable: catalog: 42983, numindb: 533
Update: records affected: 1



GetName: 42983 QIKCOM-1

Hit Count: updated at: Fri, 24 Sep 2021 18:14:15 GMT